Dewpoint
24 27 31 34 35 41 43 45 46 46 47 48 48 49 44 43 38 35 50 53 52 53 55 56 57 58 59 61 62 62 63 64 64 64 64 65 66 65 67 67 67 67 67 66 66 63 63 64 65 65 66 67 68 68 69 69 69 69 69 69 69 69 69 69 69 69 69 69 68 68 69 68 67 68 68 68 68 69 70 69 68 68 69 69 72 72 72
34 33 35 37 41 43 43 44 46 47 47 48 49 50 52 52 52 53 53 54 54 55 57 59 61 62 62 62 63 63 63 64 65 64 64 65 65 65 66 66 67 67 67 68 68 68 67 64 66 67 67 68 68 68 69 69 70 70 69 69 68 68 68 68 69 69 69 69 69 69 69 68 67 67 67 67 68 68 69 69 68 69 69 69 70 71 72
34 33 35 41 42 43 44 46 47 48 49 50 50 50 50 52 52 53 53 53 53 55 58 58 60 60 61 61 61 62 62 63 63 64 65 65 65 66 65 66 66 67 67 68 68 68 68 67 67 69 70 70 69 70 71 70 70 71 70 70 69 68 68 68 69 69 70 69 69 70 71 69 68 67 69 69 68 68 69 69 69 69 69 68 68 69 70
30 29 28 37 40 41 41 42 45 48 49 50 50 51 51 51 51 52 53 53 54 56 59 60 60 59 59 60 60 61 62 63 63 62 62 64 64 65 65 66 66 66 67 68 68 68 68 68 68 68 68 69 69 70 71 70 71 71 71 71 70 70 69 70 70 70 69 69 69 70 72 72 73 73 73 73 72 71 71 71 72 71 69 69 68 68 68
31 31 31 31 35 35 37 39 42 48 49 50 51 52 53 53 54 53 52 53 58 59 60 59 60 60 60 60 60 61 62 63 63 62 62 63 64 65 64 65 66 67 66 67 68 69 69 69 68 68 69 68 68 68 69 71 72 71 70 71 71 71 71 72 71 71 70 69 69 72 72 73 73 73 73 72 72 72 72 73 73 71 70 69 69 68 67
29 29 34 34 34 32 35 45 51 50 48 49 49 51 53 55 55 55 57 57 58 59 60 59 60 60 61 62 63 63 62 63 63 63 63 65 65 65 66 66 66 67 67 68 68 69 69 70 70 70 71 70 69 69 70 70 69 69 68 69 70 71 71 71 71 71 71 71 70 71 71 72 72 71 71 71 70 71 72 72 73 73 72 70 69 68 68
29 34 36 34 32 34 41 50 52 52 47 48 48 50 53 54 56 57 57 58 58 59 60 60 61 61 62 63 63 64 65 64 64 64 64 64 64 65 65 66 66 66 66 67 68 68 68 69 69 68 68 70 69 69 70 70 69 69 68 68 68 69 69 70 70 69 68 67 67 68 69 70 70 70 70 69 70 70 70 71 72 72 72 71 70 69 66
35 34 33 31 33 41 43 48 50 47 45 46 47 48 49 54 55 56 56 57 59 60 60 60 60 61 61 62 63 63 64 64 64 63 63 63 64 63 64 64 65 66 66 66 66 66 68 68 68 68 68 68 69 69 70 69 69 69 69 68 68 69 70 70 70 70 70 69 68 67 67 67 69 70 69 69 69 70 70 70 71 72 72 72 70 67 65
27 32 35 35 40 41 40 44 43 43 41 43 46 45 47 50 56 56 57 57 57 58 60 60 60 60 59 59 61 63 63 63 64 64 64 64 64 64 65 65 65 65 65 65 65 66 66 66 67 67 68 68 68 68 68 69 69 69 69 69 69 69 69 70 71 71 71 70 69 69 69 69 69 70 70 70 69 70 69 70 71 71 72 72 70 67 66
35 32 32 34 36 33 38 44 44 45 44 47 50 47 45 49 54 57 57 56 56 58 58 60 60 61 56 56 58 62 64 64 63 64 64 65 65 65 65 66 65 65 65 65 65 65 65 65 65 66 67 68 67 67 67 67 67 67 67 68 69 69 69 71 71 71 70 70 69 69 69 68 70 71 72 72 71 71 69 70 71 71 71 71 71 69 66
34 34 32 31 33 37 42 43 45 46 48 46 50 45 43 48 52 57 57 56 57 57 57 57 57 55 53 54 58 62 64 63 64 64 64 65 65 65 65 64 64 64 64 64 65 65 65 64 65 65 65 65 65 64 65 65 65 65 66 67 68 68 69 70 70 70 70 70 70 69 69 69 69 70 70 70 70 70 70 70 70 70 71 69 69 68 67
36 34 35 35 40 39 43 46 46 48 49 46 39 34 37 48 53 58 58 57 57 57 57 58 56 54 52 54 59 64 63 62 61 62 62 63 63 64 65 64 64 63 64 63 63 63 63 63 64 64 64 64 64 64 64 64 64 65 65 66 67 68 68 69 69 70 70 70 70 69 69 69 69 69 70 69 69 69 69 70 70 70 70 69 68 68 68
39 41 38 39 41 46 48 47 47 48 51 42 33 31 42 49 55 58 59 58 58 58 57 58 57 58 58 60 62 62 59 57 57 59 61 61 61 61 62 62 63 61 61 61 61 62 62 62 63 63 63 63 62 63 63 63 64 65 66 66 66 66 67 67 68 69 69 69 69 69 69 69 69 70 70 69 70 70 70 70 70 69 68 68 67 67 66
37 38 38 37 40 45 47 49 49 51 44 37 37 44 49 54 57 59 59 58 59 59 59 59 59 60 61 61 61 59 58 57 57 57 57 57 56 58 60 60 60 59 59 60 60 61 61 61 62 63 62 62 62 62 62 62 62 64 64 63 63 63 64 65 66 67 67 68 69 69 69 69 69 69 69 70 70 70 70 69 68 67 67 65 64 64 65
39 39 37 33 31 40 49 50 50 51 41 42 46 50 53 56 58 59 59 59 59 59 58 59 58 58 59 59 59 58 58 57 56 56 54 53 54 55 56 58 60 58 58 58 57 58 59 60 60 59 59 60 60 60 60 61 63 63 63 61 61 61 61 62 64 64 64 66 67 67 68 68 67 67 67 68 69 70 69 68 68 67 66 64 63 63 65
34 35 35 35 42 45 49 51 47 50 51 52 53 52 52 55 57 58 58 58 59 59 58 58 58 58 58 58 58 57 57 56 55 53 53 52 53 54 56 57 57 58 57 57 57 58 59 61 61 60 59 59 59 59 58 60 62 63 63 63 61 61 62 59 59 62 63 64 64 64 65 66 66 65 65 66 67 67 68 69 67 67 66 65 65 65 64
39 38 41 44 46 47 48 52 52 52 53 54 53 54 54 56 56 57 57 58 59 59 58 58 58 57 57 57 57 56 56 55 55 54 52 52 52 54 54 55 58 56 56 57 58 59 60 60 60 60 61 60 60 59 60 62 62 60 59 61 62 62 61 59 59 58 59 61 62 62 62 63 64 65 65 64 64 64 65 64 64 64 65 66 65 65 65
45 46 46 47 47 47 48 49 51 50 50 52 54 55 55 56 57 58 58 59 59 59 59 59 58 58 58 57 56 56 56 55 56 56 52 51 51 53 54 55 56 56 57 58 58 58 58 59 60 61 59 59 59 59 61 64 62 60 59 60 61 61 62 63 65 63 64 64 62 60 64 63 64 66 65 64 63 63 63 63 63 63 64 64 66 66 64
39 38 45 46 46 48 49 48 49 50 50 51 52 53 54 55 57 58 59 58 58 58 59 59 58 58 58 57 56 55 54 54 54 54 50 50 50 52 54 55 56 55 56 56 55 55 55 56 58 58 58 59 59 59 59 59 60 59 59 59 60 60 59 59 60 61 62 64 60 59 60 60 59 61 61 61 61 62 62 61 62 63 63 64 64 65 64
39 42 45 48 49 50 51 50 49 49 49 50 51 52 55 57 58 59 59 59 59 59 59 59 58 58 58 58 57 57 58 55 55 55 54 50 51 52 55 56 55 55 55 55 55 56 55 55 57 58 58 58 59 57 57 59 58 59 60 58 56 56 58 61 61 61 62 63 61 59 57 55 53 53 55 56 56 57 57 58 58 59 60 62 62 61 59
44 46 47 49 49 49 50 51 52 51 50 50 50 50 52 55 58 58 59 59 59 59 59 58 58 57 57 58 58 58 57 56 56 56 56 56 55 56 56 56 56 55 56 56 56 56 55 55 56 57 58 58 56 55 58 59 58 58 59 57 61 57 57 57 60 60 59 58 58 57 54 54 53 53 53 53 54 54 57 57 57 57 57 58 59 57 56
42 43 46 47 45 45 48 50 51 51 52 52 51 51 51 51 53 56 58 58 59 59 59 59 58 57 57 57 57 58 58 57 55 55 56 56 56 56 56 56 56 57 58 57 57 56 55 56 57 57 57 58 59 60 59 58 58 60 61 59 57 58 58 59 59 59 58 56 56 57 54 53 53 53 52 46 47 53 53 55 51 50 53 55 56 55 54
40 45 47 47 48 48 49 50 51 51 51 51 51 51 51 52 52 53 55 57 57 58 58 60 59 58 57 57 57 57 57 57 57 56 55 55 55 55 56 55 55 56 57 58 58 57 56 57 58 58 58 58 58 60 59 59 58 58 59 60 59 58 59 59 61 61 58 55 54 54 54 54 54 55 52 52 44 44 49 50 47 45 47 48 50 52 56
46 48 49 49 49 49 50 52 51 50 51 49 50 52 53 52 52 52 52 53 54 55 58 59 60 59 59 58 57 57 57 58 57 57 57 57 56 57 56 55 56 56 56 56 56 56 56 57 57 57 58 57 57 58 59 59 59 58 59 59 57 57 55 58 62 61 58 57 58 56 55 55 54 54 53 53 53 46 42 45 45 42 43 44 46 47 50
46 51 50 49 49 50 51 52 52 52 52 50 50 51 51 52 52 52 52 52 53 53 53 54 57 59 59 59 58 56 57 58 59 59 60 60 59 56 56 56 55 56 55 55 54 55 55 55 57 57 56 56 57 58 58 59 59 58 58 59 56 55 57 58 61 62 61 60 59 58 57 57 57 55 53 52 51 52 52 44 42 41 42 42 42 42 43
52 52 51 51 50 50 51 51 50 50 51 51 51 53 57 58 54 53 51 51 51 51 52 53 54 56 58 58 58 57 57 57 59 59 56 57 57 57 56 57 57 57 55 54 55 55 55 56 56 56 56 55 56 57 59 59 58 57 57 57 57 57 57 58 59 58 59 59 59 58 59 59 59 57 57 55 53 53 53 54 53 49 45 41 41 43 42
51 51 49 48 48 49 49 48 48 50 51 51 50 51 53 56 57 53 52 53 52 51 51 51 52 52 53 56 59 58 57 59 59 57 57 58 58 58 58 58 57 57 57 56 56 57 59 58 57 55 55 55 56 57 57 57 57 56 56 56 57 61 60 61 57 57 57 57 57 57 57 57 58 61 61 59 58 56 54 54 53 52 52 53 47 42 48
50 50 49 47 47 47 48 46 47 48 48 47 46 47 49 49 46 43 42 44 48 52 52 52 50 49 51 54 55 56 58 58 57 57 57 57 58 58 57 58 58 58 56 56 56 57 58 56 56 55 55 54 56 56 57 56 55 55 55 56 55 55 57 59 57 56 56 56 56 56 56 57 59 60 61 62 61 58 56 56 56 54 54 52 52 50 47
52 52 52 49 49 49 47 46 45 42 42 46 45 43 43 43 42 41 41 43 47 49 46 46 48 50 52 53 53 53 54 56 56 56 56 56 58 59 59 57 57 57 56 56 55 55 54 54 54 54 54 55 55 56 56 56 55 54 56 55 54 53 53 56 56 56 56 56 56 57 59 58 57 57 58 59 60 59 59 59 58 56 53 53 53 54 54
51 51 51 50 48 46 44 42 42 42 42 43 40 41 40 39 39 41 45 47 48 47 48 47 47 50 51 50 52 52 53 54 54 54 55 56 57 57 57 57 56 55 55 55 54 54 53 54 53 53 54 55 56 55 56 55 56 56 56 55 53 54 55 56 56 55 54 54 57 58 57 56 58 57 59 57 56 59 58 59 60 58 55 55 55 52 51
49 50 50 48 46 43 41 41 42 42 42 41 40 40 41 41 41 42 42 43 44 43 45 49 49 48 49 49 49 52 53 52 53 53 53 53 57 57 58 57 55 55 55 55 55 55 55 54 54 54 55 55 55 55 55 55 55 55 54 53 54 57 58 58 57 54 54 56 55 56 56 55 55 56 56 58 57 57 55 56 57 58 57 55 56 54 53
48 48 48 47 45 42 42 43 42 39 40 41 39 37 38 39 41 42 45 42 41 41 42 45 47 47 48 50 50 50 51 51 50 49 50 52 55 56 57 56 57 60 57 57 57 57 55 54 54 55 55 56 55 54 54 54 55 55 53 57 53 54 55 57 55 55 57 58 55 55 57 54 53 56 59 55 55 55 54 53 54 55 54 56 56 56 56
47 46 47 47 46 43 43 43 40 40 41 40 41 42 43 44 45 46 44 46 47 46 46 47 48 47 47 48 47 47 48 48 49 50 50 51 54 56 57 56 56 55 55 55 54 55 56 56 56 56 56 56 56 55 55 54 55 54 54 53 52 52 56 55 54 53 55 54 53 53 54 56 54 54 55 55 53 55 53 53 55 54 55 52 49 48 51
48 47 47 47 44 40 40 42 42 42 42 42 42 43 44 46 46 46 47 48 47 47 46 45 47 48 47 46 45 46 48 47 47 47 48 50 50 53 54 58 55 54 54 55 55 55 55 55 56 57 58 58 56 56 55 55 55 55 54 54 53 52 54 53 52 53 53 54 52 52 54 56 53 53 55 54 53 54 55 54 54 53 51 49 47 48 44
47 47 47 47 44 40 41 43 44 43 42 41 43 46 47 47 46 46 49 47 47 47 48 49 49 49 48 48 48 49 48 46 46 47 45 46 48 49 53 54 55 54 54 54 54 54 54 55 55 56 57 58 58 57 56 55 55 54 54 54 56 54 54 54 52 52 53 53 53 51 52 51 52 54 53 51 50 51 52 55 53 53 49 48 48 48 46
48 48 48 47 46 43 41 41 45 43 42 43 46 46 46 47 48 48 46 46 47 48 47 46 46 46 45 45 47 47 46 47 48 47 47 48 49 50 52 52 52 52 52 51 51 54 55 55 60 60 57 56 56 57 58 57 56 56 56 56 56 56 55 54 52 52 53 52 52 52 51 53 53 53 53 51 51 52 50 49 53 52 49 48 48 47 47
49 49 47 47 47 46 45 46 47 46 46 46 47 47 47 47 46 47 48 48 48 47 47 47 47 46 46 46 47 47 47 47 48 47 47 47 49 48 48 49 51 50 51 49 50 51 53 54 61 62 59 56 56 55 56 59 56 54 55 55 55 55 55 53 52 51 51 53 52 52 53 54 52 52 53 49 50 50 50 50 51 51 51 51 50 49 48
49 48 47 47 46 46 46 47 48 47 47 47 48 49 48 48 48 47 47 48 47 47 47 46 46 46 47 48 47 47 47 47 47 47 47 48 48 47 46 47 47 49 49 50 49 51 53 56 62 59 55 55 55 55 57 59 59 55 54 54 55 55 54 54 53 54 53 51 54 51 52 51 50 49 49 48 48 50 50 50 50 50 50 50 49 48 48
49 49 48 47 47 47 48 48 47 47 46 46 47 48 50 49 49 47 47 46 46 48 46 46 46 46 46 46 46 46 46 46 48 47 47 47 48 47 46 46 48 49 50 50 52 52 54 57 56 54 53 53 54 54 57 60 59 53 53 53 54 54 53 53 53 52 52 52 51 50 49 49 49 48 48 48 47 49 52 49 47 49 45 44 44 44 45
49 48 48 48 47 47 47 46 46 47 47 47 46 47 48 47 46 46 45 43 44 48 47 46 45 45 46 46 45 45 46 46 46 45 46 46 47 47 46 46 48 50 52 56 53 54 57 59 57 53 52 53 53 52 55 57 57 52 52 51 52 53 53 53 51 51 51 50 51 53 51 50 50 50 50 49 49 50 49 48 46 45 43 43 42 43 45
49 48 48 47 48 47 46 47 47 47 47 47 46 47 47 46 45 44 43 44 46 47 45 45 44 46 45 45 45 44 45 46 46 44 45 45 44 44 44 43 47 49 51 51 53 54 54 58 54 52 52 51 51 55 53 56 52 50 49 50 51 51 52 51 51 50 51 51 52 50 50 50 50 50 49 47 47 46 48 46 44 44 43 42 42 43 43
49 48 48 48 48 47 47 48 48 47 46 46 48 47 46 46 46 45 47 46 45 44 44 46 52 46 46 46 46 47 45 45 46 46 46 45 44 43 43 44 48 50 51 52 53 53 51 51 53 55 51 50 52 56 56 54 50 49 49 49 50 52 50 51 52 51 51 51 50 50 50 49 49 49 49 49 48 49 48 47 46 44 42 42 43 42 43
49 48 47 47 48 48 48 48 46 46 45 46 46 47 47 47 47 47 47 46 46 45 45 45 47 50 48 45 45 44 44 45 45 45 45 46 46 47 46 46 50 50 53 54 52 50 50 49 49 49 54 54 53 56 57 51 50 50 49 49 50 50 50 50 50 50 49 49 49 49 47 47 48 48 48 47 47 47 47 45 43 42 43 41 42 42 41
49 48 48 48 48 49 47 47 47 47 46 46 46 46 46 46 46 46 45 45 46 46 43 43 44 45 46 46 45 44 44 45 45 45 45 45 45 48 50 50 50 52 54 54 53 51 50 49 49 52 55 56 56 56 53 49 49 49 49 49 49 49 49 49 48 48 47 47 47 47 47 48 45 44 45 45 45 43 43 42 41 41 42 41 40 40 40
49 49 48 48 48 48 46 46 45 46 46 45 46 45 44 44 44 46 47 46 46 46 48 46 46 46 45 45 45 45 45 46 46 46 44 44 45 45 49 55 53 53 53 54 50 49 48 47 51 54 56 55 56 55 47 46 46 47 47 48 47 48 47 47 47 47 47 46 46 46 46 46 45 44 43 44 44 42 41 40 38 38 39 38 38 38 38
49 49 49 52 47 46 46 47 47 46 45 45 44 47 46 45 45 45 46 46 46 47 47 47 46 47 46 46 47 47 47 47 47 47 47 47 46 47 49 53 52 53 52 52 49 47 47 54 54 54 54 53 51 47 46 47 47 46 47 47 47 48 46 47 47 47 46 47 48 46 45 45 45 44 45 44 44 42 40 43 41 38 36 36 36 37 38
49 49 48 47 47 47 46 46 46 45 44 43 43 43 46 46 47 46 46 47 46 46 46 46 46 46 47 46 46 45 44 44 45 48 48 49 51 52 52 53 54 53 52 48 48 47 48 48 51 51 50 50 49 44 43 43 44 44 45 46 46 46 47 47 47 47 47 46 48 48 48 45 42 44 46 45 41 41 42 41 40 41 41 41 41 42 41
48 47 46 46 46 46 46 46 44 42 42 43 43 44 47 46 46 45 45 46 46 46 46 45 46 46 46 47 47 47 47 46 44 45 47 48 49 50 49 48 50 52 50 51 49 50 49 50 49 48 47 47 44 42 43 44 45 45 44 44 43 44 43 42 42 43 44 45 44 43 43 42 42 42 42 41 39 39 40 41 40 41 41 40 42 39 40
47 46 47 47 45 45 44 43 44 45 43 44 47 45 46 45 45 45 45 45 45 45 46 46 47 47 48 50 49 47 50 50 46 45 47 48 48 48 49 51 51 51 48 46 45 46 48 48 48 49 49 49 42 42 42 44 46 45 45 45 45 44 42 42 42 43 42 42 43 43 43 44 43 43 43 43 43 40 40 38 38 37 38 39 39 41 40
46 47 46 45 44 44 44 44 43 43 44 47 44 45 45 44 42 42 46 46 45 47 45 44 46 47 48 48 48 49 49 50 50 50 50 49 48 47 49 48 49 51 49 45 46 45 47 46 46 45 47 43 44 45 44 44 45 45 46 47 47 45 46 47 50 47 45 46 45 45 42 42 41 42 43 43 43 41 39 39 38 41 44 42 40 40 40
46 46 46 46 45 44 44 44 44 45 46 46 45 46 46 44 43 46 45 46 45 46 44 43 43 44 46 46 47 47 48 49 50 52 48 48 47 50 50 49 48 50 48 48 46 43 42 42 42 45 44 45 43 46 45 44 45 46 46 45 45 45 44 44 46 46 46 47 46 45 44 43 43 42 41 42 43 42 43 42 42 42 41 39 40 39 39
46 46 46 46 45 45 45 46 47 47 47 47 47 47 46 45 45 46 45 51 43 43 44 42 40 41 43 46 46 46 48 49 50 48 50 48 47 46 48 48 46 47 44 46 43 42 41 43 46 45 47 43 42 43 49 46 45 44 45 47 48 45 45 45 47 44 44 44 44 42 45 44 43 45 43 41 43 43 43 43 41 41 40 39 38 39 38